Powrót do katalogu

OPS 7218

TRANSIT 16

AktywnyNawigacjaPO
NORAD 2807·PAYLOAD·🇺🇸 United States

Wystrzelony May 18, 1967 z Vandenberg Space Force Base

Loading…

Następne Przeloty (najbliższe 24 godziny)

TLE

ŚwieżeSource: Space-Track

Epoka: Sep 14, 2026, 03:49 UTC

1 02807U 67048A   26257.15906020  .00000086  00000-0  11701-3 0  9994
2 02807  89.6784 344.9732 0021307  44.3621 331.7815 13.50779629919945

Śledź OPS 7218 w czasie rzeczywistym z AllMySat

Download on the App Store